Location: Oak Glen
(34.0495°N, 116.9470°E)
Time: 10:09:30
(UTC-07:00)

Vanguard 1 - Pass Details

Date: 24 June 2018
Orbit: 650 x 3833 km, 34.2° (Epoch: 20 September)

Event Time Altitude Azimuth Distance (km) Brightness Sun altitude
Rises 14:42:26 0° 247° (WSW) 4,018 12.5 6.6°
Reaches altitude 10° 14:44:38 10° 246° (WSW) 3,315 12.2 7.0°
Maximum altitude 14:53:17 78° 161° (SSE) 1,983 11.8 8.7°
Drops below altitude 10° 15:10:01 10° 79° (E) 6,005 16.5 11.9°
Sets 15:15:37 0° 79° (E) 7,416 16.5 13.0°
